Location: Le Rocchette
(44.3500°N, 7.8333°E)
Time: 20:32:21
(UTC+00:00)

USA 234 - Pass Details

Date: 17 November 2019
Orbit: 1099 x 1108 km, 123.0° (Epoch: 09 December)

Event Time Altitude Azimuth Distance (km) Brightness Sun altitude
Rises 05:37:24 0° 92° (E) 3,912 7.9 -9.0°
Reaches altitude 10° 05:40:02 10° 85° (E) 2,955 6.8 -8.5°
Maximum altitude 05:45:57 39° 20° (NNE) 1,598 4.2 -7.5°
Drops below altitude 10° 05:51:54 10° 314° (NW) 2,963 5.0 -6.5°
Enters shadow 05:53:08 - 311° (NW) 3,408 5.2 -6.3°
